sat.trackr.live / text

‹ back to catalog

STARLINK-31862

NORAD 59786 · 2024-093E

PAYLOAD ACTIVE UNKNOWN

§ Identity

Operator
Country
US
Launch date
2024-05-18
Launch site
AFETR
Launch vehicle
Mass (kg)
RCS (m²)

Purposes: comms

External: N2YO · Heavens-Above · Gunter

§ Orbital elements

Epoch: 2026-09-21T11:38:34.492416Z

Period
94.27 min
Inclination
43.0007°
Eccentricity
0.0001101
Mean motion
15.27575495 rev/d
Perigee alt
482.3 km
Apogee alt
483.8 km
Semi-major
6,861.2 km
B*
1.8076e-6
RAAN
182.8184°
Arg perigee
267.6505°
Mean anomaly
92.4221°
Rev number
13,264

§ Raw data

STARLINK-318621 59786U 24093E   26264.48512144 -.00000212  00000+0  18076-5 0  99942 59786  43.0007 182.8184 0001101 267.6505  92.4221 15.27575495132643

JSON: /api/v1/satellites/59786 · /tle

For live sub-satellite position, see the globe view (requires WebGL).

§ Visibility from observer

Set your observer location to see the next 7 days of passes ≥ 10°. The values pass through the URL so the page stays shareable.

No JS? Fill the form by hand. The geolocation button needs JavaScript.